Location: Hilton Head Island
(32.2163°N, 80.7526°W)
Time: 15:34:41
(UTC-05:00)

Explorer 11/Cluster Stage 4 - Pass Details

Date: 16 February 2026
Orbit: 463 x 1176 km, 28.8° (Epoch: 6 March)

Event Time Altitude Azimuth Distance (km) Brightness Sun altitude
Rises 13:54:47 0° 240° (WSW) 2,690 9.9 41.9°
Reaches altitude 10° 13:57:19 10° 230° (SW) 1,718 9.3 41.7°
Maximum altitude 14:00:44 30° 167° (SSE) 866 7.9 41.3°
Drops below altitude 10° 14:03:57 10° 103° (ESE) 1,602 8.2 41.0°
Sets 14:06:14 0° 93° (E) 2,474 9.0 40.8°
